Location: Unspecified
(41.5000°N, 0.0000°E)
Time: 12:40:19
(UTC+00:00)

Vanguard 2 - Pass Details

Date: 21 June 2019
Orbit: 553 x 2938 km, 32.9° (Epoch: 20 July)

Event Time Altitude Azimuth Distance (km) Brightness Sun altitude
Rises 09:40:27 0° 248° (WSW) 3,414 10.6 55.5°
Reaches altitude 10° 09:42:38 10° 241° (WSW) 2,689 10.2 55.9°
Maximum altitude 09:48:52 46° 169° (S) 1,699 10.4 57.0°
Drops below altitude 10° 09:59:06 10° 102° (ESE) 4,356 12.0 58.7°
Sets 10:03:38 0° 97° (E) 5,746 12.4 59.5°
